Regional Weather Roundup
Issued by NWS Sterling, VA

Home | Current Version | Previous Version | Graphics & Text | Print | Product List | Glossary On
Versions: 1 2 3 4 5 6 7 8 9 10 11 12 13 14 15 16 17 18 19 20 21 22 23 24 25 26 27 28 29 30 31 32 33 34 35 36 37 38 39 40 41 42 43 44 45 46 47 48 49 50
000
ASUS41 KLWX 231710
RWRLWX

REGIONAL WEATHER ROUNDUP
NATIONAL WEATHER SERVICE BALTIMORE MD/WASHINGTON DC
100 PM EDT WED JUL 23 2014

Note: "FAIR" indicates few or no clouds below 12,000 feet
with no significant weather and/or obstructions to visibility.
 TC=TEMPERATURE CELSIUS

 * =Non NWS site. Station does not report precipitation (e.g. rain,
    snow, etc.), thunder, or fog.

DCZ001-MDZ009-015-VAZ040>042-051-053>054-231800-
WASHINGTON METRO
  /KDAA//-FT BELVOIR

CITY           SKY/WX    TMP DP  RH WIND       PRES   REMARKS
WASHINGTON NAT MOSUNNY   90  71  53 S12       29.93F HX  96
DULLES         MOSUNNY   89  71  55 S9        29.93F HX  95
ANDREWS AFB    SUNNY     89  74  61 SW9       29.93F HX  99
QUANTICO       MOSUNNY   86  75  69 S10       29.94F HX  95
COLLEGE PARK*  PTSUNNY   90  72  55 SW3       29.92S HX  96
LEESBURG*      SUNNY     91  75  59 W3        29.94F HX 102
GAITHERSBURG*  MOSUNNY   88  73  62 W3        29.96F HX  96

$$

MDZ006>007-011-014-231800-
BALTIMORE METRO

CITY           SKY/WX    TMP DP  RH WIND       PRES   REMARKS
BWI AIRPORT    MOSUNNY   89  71  55 VRB3      29.91F HX  95
MD SCIENCE CTR   N/A     90  70  51 MISG      29.91F HX  95
MARTIN STATE   MOSUNNY   84  79  84 E9        29.93F HX  96
ANNAPOLIS      SUNNY     85  75  72 SE9       29.92F HX  93
FORT MEADE*    SUNNY     88  72  58 MISG      29.94F HX  94

$$

MDZ012-015-019>023-231800-
MARYLAND EASTERN SHORE

CITY           SKY/WX    TMP DP  RH WIND       PRES   REMARKS
OCEAN CITY     SUNNY     82  75  79 S7        29.96F
SALISBURY      NOT AVBL
BAY BRIDGE AP*   N/A     86  72  62 S9        29.93F HX  92
CAMBRIDGE*     SUNNY     90  72  55 S9        29.94S HX  96
EASTON*        SUNNY     90  73  58 SW10      29.97F HX  98

$$

MDZ017>025-231800-
SOUTHERN MARYLAND

CITY           SKY/WX    TMP DP  RH WIND       PRES   REMARKS
PATUXENT RIVER MOSUNNY   88  72  58 S8        29.94F HX  94
ST INIGOES     SUNNY     86  72  62 SE8       29.94F HX  92
LEONARDTOWN*   SUNNY     88  70  55 SW10G17   29.96F HX  92

$$

MDZ003>005-231800-
NORTH CENTRAL MARYLAND

CITY           SKY/WX    TMP DP  RH WIND       PRES   REMARKS
FREDERICK*     MOSUNNY   91  75  59 SW3       29.94F HX 102
HAGERSTOWN APT MOSUNNY   89  72  56 S10       29.91F HX  96
WESTMINSTER*   SUNNY     88  81  79 SW6       29.94F HX 105

$$

MDZ501>502-231800-
WESTERN MARYLAND

CITY           SKY/WX    TMP DP  RH WIND       PRES   REMARKS
OAKLAND*       MOSUNNY   77  64  65 W8        30.06F
CUMBERLAND*    MOSUNNY   91  68  46 S9G18     29.95F HX  95

$$

VAZ025>031-231800-
SHENANDOAH VALLEY

CITY           SKY/WX    TMP DP  RH WIND       PRES   REMARKS
WINCHESTER*    MOSUNNY   90  68  48 SW9       29.94F HX  93
STAUNTON*      MOSUNNY   89  69  52 S10       30.01F HX  93

$$

WVZ021-048>050-054>055-231800-
EASTERN WEST VIRGINIA PANHANDLE

CITY           SKY/WX    TMP DP  RH WIND       PRES   REMARKS
MARTINSBURG    SUNNY     91  69  48 S7        29.91F HX  96
PETERSBURG*    MOSUNNY   87  60  41 S8        29.96F

$$

VAZ036>039-050-231800-
CENTRAL FOOTHILLS

CITY           SKY/WX    TMP DP  RH WIND       PRES   REMARKS
CHARLOTTESVILL SUNNY     89  68  49 VRB6      29.97F HX  93
ORANGE*        SUNNY     91  68  46 SW8       29.97F HX  95

$$

VAZ055>057-231800-
NORTH AND CENTRAL PIEDMONT

CITY           SKY/WX    TMP DP  RH WIND       PRES   REMARKS
FREDERICKSBRG* SUNNY     91  72  52 SW7       29.93F HX  99
STAFFORD*      SUNNY     90  72  55 S3        29.98F HX  96

$$

NCZ024-NYZ072-PAZ021-071-VAZ022-071-231800-
OTHER REGIONAL OBSERVATIONS

CITY           SKY/WX    TMP DP  RH WIND       PRES   REMARKS
NEW YORK CITY  MOSUNNY   86  71  60 VRB6      29.91F HX  91
PHILADELPHIA   MOSUNNY   88  70  55 SW14      29.91F HX  93
PITTSBURGH     CLOUDY    82  69  64 NW13      29.96S
ROANOKE        MOSUNNY   89  68  49 W14       30.03F HX  93
RICHMOND       MOSUNNY   91  68  46 S8        29.96F HX  95
RALEIGH        MOSUNNY   89  73  59 VRB3      30.03F HX  97

$$

ANZ530>537-231800-
MARINE OBSERVATIONS

STATION/POSITION TIME  TEMP    WIND        PRES
                       AIR SEA DIR/SP/G
                 (UTC) (F)     (DEG/KT/KT) (MB)
THOMAS PT LIGHT  1700   80 80  170/ 11/ 12 1013.9F
BALT KEY BRIDGE  1700   84     110/  7/  9 1012.6F
COVE POINT       1700   79     170/ 13/ 15 1013.8F
LEWISETTA        1700   85 80  220/  6/  9 1014.0F
SOLOMONS ISLAND  1700      81                N/A
PINEY POINT      1700          170/  6/  7   N/A

$$



USA.gov is the U.S. government's official web portal to all federal, state and local government web resources and services.